Weather in Novaya Biya

Russia / Udmurt Republic     56°47′55″N   51°41′48″E
В апреле 2022 года жителям России запретили посещать сайт meteo.paraplan.net по решению Генеральной прокуратуры. Аудитория сайта уменьшилась в 10 раз. Владельцы сайта не видят смысла в поддержке погодного сервера в таких условиях. Сайт будет закрыт в октябре.
temp.,
°C
wind,
m/s
gust,
m/s
humid.,
%
clouds,
%
prec.,
mm/h
press.,
hPa
HPBL,
m
4 october, tue
tue401:00+11s614515 0.0 1023442
04:00+8sse41055100 0.0 1024246
07:00+8sse41153100 0.0 1024276
10:00+11sse51344100 0.0 1025468
13:00+13s51141100 0.0 1026628
16:00+13s4943100 0.0 1027465
19:00+11sse51242100 0.0 1027363
22:00+9sse41345100 0.0 1027332
5 october, wed
wed501:00+9sse41144100 0.0 1026341
04:00+9ssw51151100 0.1 1026504
07:00+7sse51380100 2.3 1026948
10:00+7sse61374100 2.3 1025650
13:00+9sse6136170 0.0 1024672
16:00+10s5115573 0.0 1023666
19:00+9sse41160100 0.0 1022414
22:00+9sse51251100 0.0 1021484
6 october, thu
thu601:00+6sse51288100 2.2 1020572
04:00+7se51194100 4.1 1018543
07:00+7se51094100 2.1 1016463
10:00+8sse4889100 2.2 1014442
13:00+9s3590100 0.1 1014420
16:00+9ssw358698 0.8 1013324
19:00+8ssw2385100 1.5 101585
22:00+7w3691100 1.7 1015268
7 october, fri
fri701:00+7sw3692100 0.1 1015263
04:00+6wsw379493 0.1 1016311
07:00+6sw479382 0.0 1015259
10:00+7sw489271 0.2 1015399
13:00+10sw6968100 0.0 10141230
16:00+7sw61280100 0.3 1012803
19:00+7wsw51293100 0.8 1013674
22:00+8w51291100 0.9 1013447
8 october, sat
sat801:00+8w61390100 0.3 1014770
04:00+8wnw71386100 0.4 10151286
07:00+8wnw6128788 0.1 1017844
10:00+8wnw61082100 0.2 10191135
13:00+11wnw796675 0.0 10211220
16:00+11w576735 0.1 10211082
19:00+7sw368740 0.0 1022111
22:00+6sw38925 0.0 1022143